START_TIME,STEP,MOV.,EG07,t_acc.,EG08,t_acc.,EG09,t_acc.,EB05,t_acc.,EBP05,t_acc.
1979-08-01 06:22:45.740 ,0,0,1.,1.2,0.,1.2,0.,1.2,,0.0,,0.0
1979-08-01 06:22:46.940 ,0,0,0.,1.2,0.,1.2,0.,1.2,,0.0,,0.0
1979-08-01 06:22:48.140 ,0,0,0.,1.2,0.,1.2,0.,1.2,,0.0,,0.0
1979-08-01 06:22:49.340 ,0,0,0.,1.2,0.,1.2,0.,1.2,,0.0,,0.0
1979-08-01 06:22:50.540 ,0,0,0.,1.2,0.,1.2,0.,1.2,,0.0,,0.0
1979-08-01 06:22:51.740 ,0,0,0.,1.2,0.,1.2,0.,1.2,,0.0,,0.0
1979-08-01 06:22:52.940 ,0,0,0.,1.2,0.,1.2,0.,1.2,,0.0,,0.0
1979-08-01 06:22:54.140 ,0,0,1.,1.2,1.,1.2,0.,1.2,,0.0,,0.0
1979-08-01 06:22:55.340 ,0,0,0.,1.2,0.,1.2,0.,1.2,,0.0,,0.0
1979-08-01 06:22:56.540 ,0,0,2.,1.2,1.,1.2,0.,1.2,,0.0,,0.0
1979-08-01 06:22:57.740 ,0,0,0.,1.2,0.,1.2,0.,1.2,,0.0,,0.0
1979-08-01 06:22:58.940 ,0,0,2.,1.2,0.,1.2,0.,1.2,,0.0,,0.0
1979-08-01 06:23:00.140 ,0,0,0.,1.2,0.,1.2,0.,1.2,,0.0,,0.0
1979-08-01 06:23:01.340 ,0,0,0.,1.2,0.,1.2,0.,1.2,,0.0,,0.0
1979-08-01 06:23:02.540 ,0,0,0.,1.2,0.,1.2,0.,1.2,,0.0,,0.0
1979-08-01 06:23:03.740 ,0,0,0.,1.2,0.,1.2,0.,1.2,,0.0,,0.0
1979-08-01 06:23:04.940 ,0,0,0.,1.2,0.,1.2,0.,1.2,,0.0,,0.0
1979-08-01 06:23:06.140 ,0,0,1.,1.2,0.,1.2,0.,1.2,,0.0,,0.0
1979-08-01 06:23:07.340 ,0,0,0.,1.2,0.,1.2,0.,1.2,,0.0,,0.0
1979-08-01 06:23:08.540 ,0,0,0.,1.2,0.,1.2,0.,1.2,,0.0,,0.0
1979-08-01 06:23:09.740 ,0,0,0.,1.2,0.,1.2,0.,1.2,,0.0,,0.0
1979-08-01 06:23:10.940 ,0,0,0.,1.2,0.,1.2,0.,1.2,,0.0,,0.0
1979-08-01 06:23:12.140 ,0,0,1.,1.2,1.,1.2,1.,1.2,,0.0,,0.0
1979-08-01 06:23:13.340 ,0,0,0.,1.2,0.,1.2,0.,1.2,,0.0,,0.0
1979-08-01 06:23:14.540 ,0,0,0.,1.2,0.,1.2,0.,1.2,,0.0,,0.0
1979-08-01 06:23:15.740 ,0,0,1.,1.2,0.,1.2,0.,1.2,,0.0,,0.0
1979-08-01 06:23:16.940 ,0,0,0.,1.2,0.,1.2,0.,1.2,,0.0,,0.0
1979-08-01 06:23:18.140 ,0,0,0.,1.2,0.,1.2,0.,1.2,,0.0,,0.0
1979-08-01 06:23:19.340 ,0,0,0.,1.2,0.,1.2,0.,1.2,,0.0,,0.0
1979-08-01 06:23:20.540 ,0,0,0.,1.2,0.,1.2,0.,1.2,,0.0,,0.0
1979-08-01 06:23:21.740 ,0,0,1.,1.2,1.,1.2,0.,1.2,,0.0,,0.0
1979-08-01 06:23:22.940 ,0,0,0.,1.2,0.,1.2,0.,1.2,,0.0,,0.0
1979-08-01 06:23:24.140 ,0,0,1.,1.2,0.,1.2,0.,1.2,,0.0,,0.0
1979-08-01 06:23:25.340 ,0,0,0.,1.2,0.,1.2,0.,1.2,,0.0,,0.0
1979-08-01 06:23:26.540 ,0,0,1.,1.2,0.,1.2,0.,1.2,,0.0,,0.0
1979-08-01 06:23:27.740 ,0,0,0.,1.2,0.,1.2,0.,1.2,,0.0,,0.0
1979-08-01 06:23:28.940 ,0,0,1.,1.2,0.,1.2,0.,1.2,,0.0,,0.0
1979-08-01 06:23:30.140 ,0,0,0.,1.2,0.,1.2,0.,1.2,,0.0,,0.0
1979-08-01 06:23:31.340 ,0,0,0.,1.2,0.,1.2,0.,1.2,,0.0,,0.0
1979-08-01 06:23:32.540 ,0,0,0.,1.2,0.,1.2,0.,1.2,,0.0,,0.0
1979-08-01 06:23:33.740 ,0,0,0.,1.2,0.,1.2,0.,1.2,,0.0,,0.0
1979-08-01 06:23:34.940 ,0,0,1.,1.2,0.,1.2,0.,1.2,,0.0,,0.0
1979-08-01 06:23:36.140 ,0,0,1.,1.2,1.,1.2,0.,1.2,,0.0,,0.0
1979-08-01 06:23:37.340 ,0,0,0.,1.2,0.,1.2,0.,1.2,,0.0,,0.0
1979-08-01 06:23:38.540 ,0,0,0.,1.2,0.,1.2,0.,1.2,,0.0,,0.0
1979-08-01 06:23:39.740 ,0,0,1.,1.2,1.,1.2,0.,1.2,,0.0,,0.0
1979-08-01 06:23:40.940 ,0,0,1.,1.2,0.,1.2,0.,1.2,,0.0,,0.0
1979-08-01 06:23:42.140 ,0,0,0.,1.2,0.,1.2,0.,1.2,,0.0,,0.0
1979-08-01 06:23:43.340 ,0,0,0.,1.2,0.,1.2,0.,1.2,,0.0,,0.0
1979-08-01 06:23:44.540 ,0,0,0.,1.2,0.,1.2,0.,1.2,,0.0,,0.0
1979-08-01 06:23:45.740 ,0,0,1.,1.2,1.,1.2,0.,1.2,,0.0,,0.0
1979-08-01 06:23:46.940 ,0,0,0.,1.2,0.,1.2,0.,1.2,,0.0,,0.0
1979-08-01 06:23:48.140 ,0,0,1.,1.2,0.,1.2,0.,1.2,,0.0,,0.0
1979-08-01 06:23:49.340 ,0,0,1.,1.2,0.,1.2,0.,1.2,,0.0,,0.0
1979-08-01 06:23:50.540 ,0,0,1.,1.2,1.,1.2,0.,1.2,,0.0,,0.0
1979-08-01 06:23:51.740 ,0,0,1.,1.2,1.,1.2,1.,1.2,,0.0,,0.0
1979-08-01 06:23:52.940 ,0,0,0.,1.2,0.,1.2,0.,1.2,,0.0,,0.0
1979-08-01 06:23:54.140 ,0,0,2.,1.2,0.,1.2,0.,1.2,,0.0,,0.0
1979-08-01 06:23:55.340 ,0,0,0.,1.2,0.,1.2,0.,1.2,,0.0,,0.0
1979-08-01 06:23:56.540 ,0,0,0.,1.2,0.,1.2,0.,1.2,,0.0,,0.0
1979-08-01 06:23:57.740 ,0,0,1.,1.2,0.,1.2,0.,1.2,,0.0,,0.0
1979-08-01 06:23:58.940 ,0,0,0.,1.2,0.,1.2,0.,1.2,,0.0,,0.0
1979-08-01 06:24:00.140 ,0,0,0.,1.2,0.,1.2,0.,1.2,,0.0,,0.0
1979-08-01 06:24:01.340 ,0,0,0.,1.2,0.,1.2,0.,1.2,,0.0,,0.0
1979-08-01 06:24:02.540 ,0,0,1.,1.2,0.,1.2,0.,1.2,,0.0,,0.0
1979-08-01 06:24:03.740 ,0,0,0.,1.2,0.,1.2,0.,1.2,,0.0,,0.0
1979-08-01 06:24:04.940 ,0,0,1.,1.2,1.,1.2,0.,1.2,,0.0,,0.0
1979-08-01 06:24:06.140 ,0,0,1.,1.2,0.,1.2,0.,1.2,,0.0,,0.0
1979-08-01 06:24:07.340 ,0,0,0.,1.2,0.,1.2,0.,1.2,,0.0,,0.0
1979-08-01 06:24:08.540 ,0,0,2.,1.2,0.,1.2,0.,1.2,,0.0,,0.0
1979-08-01 06:24:09.740 ,0,0,1.,1.2,0.,1.2,0.,1.2,,0.0,,0.0
1979-08-01 06:24:10.940 ,0,0,0.,1.2,0.,1.2,0.,1.2,,0.0,,0.0
1979-08-01 06:24:12.140 ,0,0,0.,1.2,0.,1.2,0.,1.2,,0.0,,0.0
1979-08-01 06:24:13.340 ,0,0,0.,1.2,0.,1.2,0.,1.2,,0.0,,0.0
1979-08-01 06:24:14.540 ,0,0,1.,1.2,0.,1.2,0.,1.2,,0.0,,0.0
1979-08-01 06:24:15.740 ,0,0,0.,1.2,0.,1.2,0.,1.2,,0.0,,0.0
1979-08-01 06:24:16.940 ,0,0,1.,1.2,0.,1.2,0.,1.2,,0.0,,0.0
1979-08-01 06:24:18.140 ,0,0,1.,1.2,0.,1.2,0.,1.2,,0.0,,0.0
1979-08-01 06:24:19.340 ,0,0,0.,1.2,0.,1.2,0.,1.2,,0.0,,0.0
1979-08-01 06:24:20.540 ,0,0,2.,1.2,1.,1.2,0.,1.2,,0.0,,0.0
1979-08-01 06:24:21.740 ,0,0,1.,1.2,0.,1.2,0.,1.2,,0.0,,0.0
1979-08-01 06:24:22.940 ,0,0,0.,1.2,0.,1.2,0.,1.2,,0.0,,0.0
1979-08-01 06:24:24.140 ,0,0,0.,1.2,0.,1.2,0.,1.2,,0.0,,0.0
1979-08-01 06:24:25.340 ,0,0,0.,1.2,0.,1.2,0.,1.2,,0.0,,0.0
1979-08-01 06:24:26.540 ,0,0,0.,1.2,0.,1.2,0.,1.2,,0.0,,0.0
1979-08-01 06:24:27.740 ,0,0,1.,1.2,0.,1.2,0.,1.2,,0.0,,0.0
1979-08-01 06:24:28.940 ,0,0,0.,1.2,0.,1.2,0.,1.2,,0.0,,0.0
1979-08-01 06:24:30.140 ,0,0,1.,1.2,0.,1.2,0.,1.2,,0.0,,0.0
1979-08-01 06:24:31.340 ,0,0,1.,1.2,1.,1.2,0.,1.2,,0.0,,0.0
1979-08-01 06:24:32.540 ,0,0,0.,1.2,0.,1.2,0.,1.2,,0.0,,0.0
1979-08-01 06:24:33.740 ,0,0,0.,1.2,0.,1.2,0.,1.2,,0.0,,0.0
1979-08-01 06:24:34.940 ,0,0,0.,1.2,0.,1.2,0.,1.2,,0.0,,0.0
1979-08-01 06:24:36.140 ,0,0,0.,1.2,0.,1.2,0.,1.2,,0.0,,0.0
1979-08-01 06:24:37.340 ,0,0,1.,1.2,0.,1.2,0.,1.2,,0.0,,0.0
1979-08-01 06:24:38.540 ,0,0,0.,1.2,0.,1.2,0.,1.2,,0.0,,0.0
1979-08-01 06:24:39.740 ,0,0,3.,1.2,1.,1.2,0.,1.2,,0.0,,0.0
1979-08-01 06:24:40.940 ,0,0,1.,1.2,0.,1.2,0.,1.2,,0.0,,0.0
1979-08-01 06:24:42.140 ,0,0,0.,1.2,0.,1.2,0.,1.2,,0.0,,0.0
1979-08-01 06:24:43.340 ,0,0,0.,1.2,0.,1.2,0.,1.2,,0.0,,0.0
1979-08-01 06:24:44.540 ,0,0,0.,1.2,0.,1.2,0.,1.2,,0.0,,0.0
1979-08-01 06:24:45.740 ,1,0,0.,1.2,0.,1.2,0.,1.2,,0.0,,0.0
1979-08-01 06:24:46.940 ,1,0,0.,1.2,0.,1.2,0.,1.2,,0.0,,0.0
1979-08-01 06:24:48.140 ,1,0,1.,1.2,1.,1.2,0.,1.2,,0.0,,0.0
1979-08-01 06:24:49.340 ,1,0,1.,1.2,1.,1.2,1.,1.2,,0.0,,0.0
1979-08-01 06:24:50.540 ,1,0,1.,1.2,0.,1.2,0.,1.2,,0.0,,0.0
1979-08-01 06:24:51.740 ,1,0,0.,1.2,0.,1.2,0.,1.2,,0.0,,0.0
1979-08-01 06:24:52.940 ,1,0,1.,1.2,0.,1.2,0.,1.2,,0.0,,0.0
1979-08-01 06:24:54.140 ,1,0,0.,1.2,0.,1.2,0.,1.2,,0.0,,0.0
1979-08-01 06:24:55.340 ,1,0,0.,1.2,0.,1.2,0.,1.2,,0.0,,0.0
1979-08-01 06:24:56.540 ,1,0,0.,1.2,0.,1.2,0.,1.2,,0.0,,0.0
1979-08-01 06:24:57.740 ,1,0,0.,1.2,0.,1.2,0.,1.2,,0.0,,0.0
1979-08-01 06:24:58.940 ,1,0,0.,1.2,0.,1.2,0.,1.2,,0.0,,0.0
1979-08-01 06:25:00.140 ,1,0,0.,1.2,0.,1.2,0.,1.2,,0.0,,0.0
1979-08-01 06:25:01.340 ,1,0,0.,1.2,0.,1.2,0.,1.2,,0.0,,0.0
1979-08-01 06:25:02.540 ,1,0,0.,1.2,0.,1.2,0.,1.2,,0.0,,0.0
1979-08-01 06:25:03.740 ,1,0,1.,1.2,1.,1.2,0.,1.2,,0.0,,0.0
1979-08-01 06:25:04.940 ,1,0,0.,1.2,0.,1.2,0.,1.2,,0.0,,0.0
1979-08-01 06:25:06.140 ,1,0,0.,1.2,0.,1.2,0.,1.2,,0.0,,0.0
1979-08-01 06:25:07.340 ,1,0,0.,1.2,0.,1.2,0.,1.2,,0.0,,0.0
1979-08-01 06:25:08.540 ,1,0,0.,1.2,0.,1.2,0.,1.2,,0.0,,0.0
1979-08-01 06:25:09.740 ,1,0,1.,1.2,0.,1.2,0.,1.2,,0.0,,0.0
1979-08-01 06:25:10.940 ,1,0,1.,1.2,0.,1.2,0.,1.2,,0.0,,0.0
1979-08-01 06:25:12.140 ,1,0,0.,1.2,0.,1.2,0.,1.2,,0.0,,0.0
1979-08-01 06:25:13.340 ,1,0,0.,1.2,0.,1.2,0.,1.2,,0.0,,0.0
1979-08-01 06:25:14.540 ,1,0,0.,1.2,0.,1.2,0.,1.2,,0.0,,0.0
1979-08-01 06:25:15.740 ,1,0,0.,1.2,0.,1.2,0.,1.2,,0.0,,0.0
1979-08-01 06:25:16.940 ,1,0,1.,1.2,0.,1.2,0.,1.2,,0.0,,0.0
1979-08-01 06:25:18.140 ,1,0,1.,1.2,0.,1.2,0.,1.2,,0.0,,0.0
1979-08-01 06:25:19.340 ,1,0,0.,1.2,0.,1.2,0.,1.2,,0.0,,0.0
1979-08-01 06:25:20.540 ,1,0,2.,1.2,0.,1.2,0.,1.2,,0.0,,0.0
1979-08-01 06:25:21.740 ,1,0,0.,1.2,0.,1.2,0.,1.2,,0.0,,0.0
1979-08-01 06:25:22.940 ,1,0,0.,1.2,0.,1.2,0.,1.2,,0.0,,0.0
1979-08-01 06:25:24.140 ,1,0,2.,1.2,1.,1.2,0.,1.2,,0.0,,0.0
1979-08-01 06:25:25.340 ,1,0,1.,1.2,0.,1.2,0.,1.2,,0.0,,0.0
1979-08-01 06:25:26.540 ,1,0,0.,1.2,0.,1.2,0.,1.2,,0.0,,0.0
1979-08-01 06:25:27.740 ,1,0,0.,1.2,0.,1.2,0.,1.2,,0.0,,0.0
1979-08-01 06:25:28.940 ,1,0,0.,1.2,0.,1.2,0.,1.2,,0.0,,0.0
1979-08-01 06:25:30.140 ,1,0,0.,1.2,0.,1.2,0.,1.2,,0.0,,0.0
1979-08-01 06:25:31.340 ,1,0,2.,1.2,0.,1.2,0.,1.2,,0.0,,0.0
1979-08-01 06:25:32.540 ,1,0,0.,1.2,0.,1.2,0.,1.2,,0.0,,0.0
1979-08-01 06:25:33.740 ,2,0,1.,1.2,0.,1.2,0.,1.2,,0.0,,0.0
1979-08-01 06:25:34.940 ,2,0,0.,1.2,0.,1.2,0.,1.2,,0.0,,0.0
1979-08-01 06:25:36.140 ,2,0,0.,1.2,0.,1.2,0.,1.2,,0.0,,0.0
1979-08-01 06:25:37.340 ,2,0,0.,1.2,0.,1.2,0.,1.2,,0.0,,0.0
1979-08-01 06:25:38.540 ,2,0,2.,1.2,1.,1.2,0.,1.2,,0.0,,0.0
1979-08-01 06:25:39.740 ,2,0,0.,1.2,0.,1.2,0.,1.2,,0.0,,0.0
1979-08-01 06:25:40.940 ,2,0,0.,1.2,0.,1.2,0.,1.2,,0.0,,0.0
1979-08-01 06:25:42.140 ,2,0,2.,1.2,0.,1.2,0.,1.2,,0.0,,0.0
1979-08-01 06:25:43.340 ,2,0,0.,1.2,0.,1.2,0.,1.2,,0.0,,0.0
1979-08-01 06:25:44.540 ,2,0,0.,1.2,0.,1.2,0.,1.2,,0.0,,0.0
1979-08-01 06:25:45.740 ,2,0,0.,1.2,0.,1.2,0.,1.2,,0.0,,0.0
1979-08-01 06:25:46.940 ,2,0,0.,1.2,0.,1.2,0.,1.2,,0.0,,0.0
1979-08-01 06:25:48.140 ,2,0,1.,1.2,0.,1.2,0.,1.2,,0.0,,0.0
1979-08-01 06:25:49.340 ,2,0,2.,1.2,1.,1.2,1.,1.2,,0.0,,0.0
1979-08-01 06:25:50.540 ,2,0,0.,1.2,0.,1.2,0.,1.2,,0.0,,0.0
1979-08-01 06:25:51.740 ,2,0,0.,1.2,0.,1.2,0.,1.2,,0.0,,0.0
1979-08-01 06:25:52.940 ,2,0,2.,1.2,0.,1.2,0.,1.2,,0.0,,0.0
1979-08-01 06:25:54.140 ,2,0,0.,1.2,0.,1.2,0.,1.2,,0.0,,0.0
1979-08-01 06:25:55.340 ,2,0,0.,1.2,0.,1.2,0.,1.2,,0.0,,0.0
1979-08-01 06:25:56.540 ,2,0,0.,1.2,0.,1.2,0.,1.2,,0.0,,0.0
1979-08-01 06:25:57.740 ,2,0,0.,1.2,0.,1.2,0.,1.2,,0.0,,0.0
1979-08-01 06:25:58.940 ,2,0,0.,1.2,0.,1.2,0.,1.2,,0.0,,0.0
1979-08-01 06:26:00.140 ,2,0,0.,1.2,0.,1.2,0.,1.2,,0.0,,0.0
1979-08-01 06:26:01.340 ,2,0,0.,1.2,0.,1.2,0.,1.2,,0.0,,0.0
1979-08-01 06:26:02.540 ,2,0,1.,1.2,0.,1.2,0.,1.2,,0.0,,0.0
1979-08-01 06:26:03.740 ,2,0,2.,1.2,0.,1.2,0.,1.2,,0.0,,0.0
1979-08-01 06:26:04.940 ,2,0,0.,1.2,0.,1.2,0.,1.2,,0.0,,0.0
1979-08-01 06:26:06.140 ,2,0,0.,1.2,0.,1.2,0.,1.2,,0.0,,0.0
1979-08-01 06:26:07.340 ,2,0,0.,1.2,0.,1.2,0.,1.2,,0.0,,0.0
1979-08-01 06:26:08.540 ,2,0,0.,1.2,0.,1.2,0.,1.2,,0.0,,0.0
1979-08-01 06:26:09.740 ,2,0,1.,1.2,0.,1.2,0.,1.2,,0.0,,0.0
1979-08-01 06:26:10.940 ,2,0,0.,1.2,0.,1.2,0.,1.2,,0.0,,0.0
1979-08-01 06:26:12.140 ,2,0,0.,1.2,0.,1.2,0.,1.2,,0.0,,0.0
1979-08-01 06:26:13.340 ,2,0,0.,1.2,0.,1.2,0.,1.2,,0.0,,0.0
1979-08-01 06:26:14.540 ,2,0,0.,1.2,0.,1.2,0.,1.2,,0.0,,0.0
1979-08-01 06:26:15.740 ,2,0,0.,1.2,0.,1.2,0.,1.2,,0.0,,0.0
1979-08-01 06:26:16.940 ,2,0,0.,1.2,0.,1.2,0.,1.2,,0.0,,0.0
1979-08-01 06:26:18.140 ,2,0,0.,1.2,0.,1.2,0.,1.2,,0.0,,0.0
1979-08-01 06:26:19.340 ,2,0,0.,1.2,0.,1.2,0.,1.2,,0.0,,0.0
1979-08-01 06:26:20.540 ,2,0,1.,1.2,0.,1.2,0.,1.2,,0.0,,0.0
1979-08-01 06:26:21.740 ,3,0,0.,1.2,0.,1.2,0.,1.2,,0.0,,0.0
1979-08-01 06:26:22.940 ,3,0,1.,1.2,0.,1.2,0.,1.2,,0.0,,0.0
1979-08-01 06:26:24.140 ,3,0,0.,1.2,0.,1.2,0.,1.2,,0.0,,0.0
1979-08-01 06:26:25.340 ,3,0,0.,1.2,0.,1.2,0.,1.2,,0.0,,0.0
1979-08-01 06:26:26.540 ,3,0,0.,1.2,0.,1.2,0.,1.2,,0.0,,0.0
1979-08-01 06:26:27.740 ,3,0,0.,1.2,0.,1.2,0.,1.2,,0.0,,0.0
1979-08-01 06:26:28.940 ,3,0,0.,1.2,0.,1.2,0.,1.2,,0.0,,0.0
1979-08-01 06:26:30.140 ,3,0,0.,1.2,0.,1.2,0.,1.2,,0.0,,0.0
1979-08-01 06:26:31.340 ,3,0,0.,1.2,0.,1.2,0.,1.2,,0.0,,0.0
1979-08-01 06:26:32.540 ,3,0,2.,1.2,0.,1.2,0.,1.2,,0.0,,0.0
1979-08-01 06:26:33.740 ,3,0,2.,1.2,1.,1.2,0.,1.2,,0.0,,0.0
1979-08-01 06:26:34.940 ,3,0,0.,1.2,0.,1.2,0.,1.2,,0.0,,0.0
1979-08-01 06:26:36.140 ,3,0,1.,1.2,0.,1.2,0.,1.2,,0.0,,0.0
1979-08-01 06:26:37.340 ,3,0,0.,1.2,0.,1.2,0.,1.2,,0.0,,0.0
1979-08-01 06:26:38.540 ,3,0,0.,1.2,0.,1.2,0.,1.2,,0.0,,0.0
1979-08-01 06:26:39.740 ,3,0,1.,1.2,0.,1.2,0.,1.2,,0.0,,0.0
1979-08-01 06:26:40.940 ,3,0,0.,1.2,0.,1.2,0.,1.2,,0.0,,0.0
1979-08-01 06:26:42.140 ,3,0,1.,1.2,0.,1.2,0.,1.2,,0.0,,0.0
1979-08-01 06:26:43.340 ,3,0,0.,1.2,0.,1.2,0.,1.2,,0.0,,0.0
1979-08-01 06:26:44.540 ,3,0,0.,1.2,0.,1.2,0.,1.2,,0.0,,0.0
1979-08-01 06:26:45.740 ,3,0,0.,1.2,0.,1.2,0.,1.2,,0.0,,0.0
1979-08-01 06:26:46.940 ,3,0,0.,1.2,0.,1.2,0.,1.2,,0.0,,0.0
1979-08-01 06:26:48.140 ,3,0,0.,1.2,0.,1.2,0.,1.2,,0.0,,0.0
1979-08-01 06:26:49.340 ,3,0,0.,1.2,0.,1.2,0.,1.2,,0.0,,0.0
1979-08-01 06:26:50.540 ,3,0,0.,1.2,0.,1.2,0.,1.2,,0.0,,0.0
1979-08-01 06:26:51.740 ,3,0,1.,1.2,0.,1.2,0.,1.2,,0.0,,0.0
1979-08-01 06:26:52.940 ,3,0,0.,1.2,0.,1.2,0.,1.2,,0.0,,0.0
1979-08-01 06:26:54.140 ,3,0,2.,1.2,1.,1.2,1.,1.2,,0.0,,0.0
1979-08-01 06:26:55.340 ,3,0,0.,1.2,0.,1.2,0.,1.2,,0.0,,0.0
1979-08-01 06:26:56.540 ,3,0,0.,1.2,0.,1.2,0.,1.2,,0.0,,0.0
1979-08-01 06:26:57.740 ,3,0,0.,1.2,0.,1.2,0.,1.2,,0.0,,0.0
1979-08-01 06:26:58.940 ,3,0,0.,1.2,0.,1.2,0.,1.2,,0.0,,0.0
1979-08-01 06:27:00.140 ,3,0,0.,1.2,0.,1.2,0.,1.2,,0.0,,0.0
1979-08-01 06:27:01.340 ,3,0,1.,1.2,0.,1.2,0.,1.2,,0.0,,0.0
1979-08-01 06:27:02.540 ,3,0,1.,1.2,0.,1.2,0.,1.2,,0.0,,0.0
1979-08-01 06:27:03.740 ,3,0,0.,1.2,0.,1.2,0.,1.2,,0.0,,0.0
1979-08-01 06:27:04.940 ,3,0,1.,1.2,0.,1.2,0.,1.2,,0.0,,0.0
1979-08-01 06:27:06.140 ,3,0,0.,1.2,0.,1.2,0.,1.2,,0.0,,0.0
1979-08-01 06:27:07.340 ,3,0,1.,1.2,1.,1.2,0.,1.2,,0.0,,0.0
1979-08-01 06:27:08.540 ,3,0,0.,1.2,0.,1.2,0.,1.2,,0.0,,0.0
1979-08-01 06:27:09.740 ,4,0,1.,1.2,1.,1.2,1.,1.2,,0.0,,0.0
1979-08-01 06:27:10.940 ,4,0,0.,1.2,0.,1.2,0.,1.2,,0.0,,0.0
1979-08-01 06:27:12.140 ,4,0,0.,1.2,0.,1.2,0.,1.2,,0.0,,0.0
1979-08-01 06:27:13.340 ,4,0,0.,1.2,0.,1.2,0.,1.2,,0.0,,0.0
1979-08-01 06:27:14.540 ,4,0,0.,1.2,0.,1.2,0.,1.2,,0.0,,0.0
1979-08-01 06:27:15.740 ,4,0,0.,1.2,0.,1.2,0.,1.2,,0.0,,0.0
1979-08-01 06:27:16.940 ,4,0,0.,1.2,0.,1.2,0.,1.2,,0.0,,0.0
1979-08-01 06:27:18.140 ,4,0,1.,1.2,0.,1.2,0.,1.2,,0.0,,0.0
1979-08-01 06:27:19.340 ,4,0,1.,1.2,0.,1.2,0.,1.2,,0.0,,0.0
1979-08-01 06:27:20.540 ,4,0,0.,1.2,0.,1.2,0.,1.2,,0.0,,0.0
1979-08-01 06:27:21.740 ,4,0,0.,1.2,0.,1.2,0.,1.2,,0.0,,0.0
1979-08-01 06:27:22.940 ,4,0,0.,1.2,0.,1.2,0.,1.2,,0.0,,0.0
1979-08-01 06:27:24.140 ,4,0,0.,1.2,0.,1.2,0.,1.2,,0.0,,0.0
1979-08-01 06:27:25.340 ,4,0,0.,1.2,0.,1.2,0.,1.2,,0.0,,0.0
1979-08-01 06:27:26.540 ,4,0,1.,1.2,0.,1.2,0.,1.2,,0.0,,0.0
1979-08-01 06:27:27.740 ,4,0,1.,1.2,0.,1.2,0.,1.2,,0.0,,0.0
1979-08-01 06:27:28.940 ,4,0,2.,1.2,1.,1.2,0.,1.2,,0.0,,0.0
1979-08-01 06:27:30.140 ,4,0,0.,1.2,0.,1.2,0.,1.2,,0.0,,0.0
1979-08-01 06:27:31.340 ,4,0,0.,1.2,0.,1.2,0.,1.2,,0.0,,0.0
1979-08-01 06:27:32.540 ,4,0,2.,1.2,0.,1.2,0.,1.2,,0.0,,0.0
1979-08-01 06:27:33.740 ,4,0,0.,1.2,0.,1.2,0.,1.2,,0.0,,0.0
1979-08-01 06:27:34.940 ,4,0,1.,1.2,0.,1.2,0.,1.2,,0.0,,0.0
1979-08-01 06:27:36.140 ,4,0,0.,1.2,0.,1.2,0.,1.2,,0.0,,0.0
1979-08-01 06:27:37.340 ,4,0,0.,1.2,0.,1.2,0.,1.2,,0.0,,0.0
1979-08-01 06:27:38.540 ,4,0,0.,1.2,0.,1.2,0.,1.2,,0.0,,0.0
1979-08-01 06:27:39.740 ,4,0,0.,1.2,0.,1.2,0.,1.2,,0.0,,0.0
1979-08-01 06:27:40.940 ,4,0,0.,1.2,0.,1.2,0.,1.2,,0.0,,0.0
1979-08-01 06:27:42.140 ,4,0,0.,1.2,0.,1.2,0.,1.2,,0.0,,0.0
1979-08-01 06:27:43.340 ,4,0,0.,1.2,0.,1.2,0.,1.2,,0.0,,0.0
1979-08-01 06:27:44.540 ,4,0,0.,1.2,0.,1.2,0.,1.2,,0.0,,0.0
1979-08-01 06:27:45.740 ,4,0,0.,1.2,0.,1.2,0.,1.2,,0.0,,0.0
1979-08-01 06:27:46.940 ,4,0,1.,1.2,0.,1.2,0.,1.2,,0.0,,0.0
1979-08-01 06:27:48.140 ,4,0,1.,1.2,0.,1.2,0.,1.2,,0.0,,0.0
1979-08-01 06:27:49.340 ,4,0,0.,1.2,0.,1.2,0.,1.2,,0.0,,0.0
1979-08-01 06:27:50.540 ,4,0,2.,1.2,1.,1.2,1.,1.2,,0.0,,0.0
1979-08-01 06:27:51.740 ,4,0,2.,1.2,0.,1.2,0.,1.2,,0.0,,0.0
1979-08-01 06:27:52.940 ,4,0,0.,1.2,0.,1.2,0.,1.2,,0.0,,0.0
1979-08-01 06:27:54.140 ,4,0,0.,1.2,0.,1.2,0.,1.2,,0.0,,0.0
1979-08-01 06:27:55.340 ,4,0,2.,1.2,1.,1.2,0.,1.2,,0.0,,0.0
1979-08-01 06:27:56.540 ,4,0,0.,1.2,0.,1.2,0.,1.2,,0.0,,0.0
1979-08-01 06:27:57.740 ,5,0,0.,1.2,0.,1.2,0.,1.2,,0.0,,0.0
1979-08-01 06:27:58.940 ,5,0,0.,1.2,0.,1.2,0.,1.2,,0.0,,0.0
1979-08-01 06:28:00.140 ,5,0,0.,1.2,0.,1.2,0.,1.2,,0.0,,0.0
1979-08-01 06:28:01.340 ,5,0,0.,1.2,0.,1.2,0.,1.2,,0.0,,0.0
1979-08-01 06:28:02.540 ,5,0,0.,1.2,0.,1.2,0.,1.2,,0.0,,0.0
1979-08-01 06:28:03.740 ,5,0,0.,1.2,0.,1.2,0.,1.2,,0.0,,0.0
1979-08-01 06:28:04.940 ,5,0,2.,1.2,0.,1.2,0.,1.2,,0.0,,0.0
1979-08-01 06:28:06.140 ,5,0,0.,1.2,0.,1.2,0.,1.2,,0.0,,0.0
1979-08-01 06:28:07.340 ,5,0,1.,1.2,1.,1.2,0.,1.2,,0.0,,0.0
1979-08-01 06:28:08.540 ,5,0,1.,1.2,0.,1.2,0.,1.2,,0.0,,0.0
1979-08-01 06:28:09.740 ,5,0,0.,1.2,0.,1.2,0.,1.2,,0.0,,0.0
1979-08-01 06:28:10.940 ,5,0,1.,1.2,1.,1.2,1.,1.2,,0.0,,0.0
1979-08-01 06:28:12.140 ,5,0,0.,1.2,0.,1.2,0.,1.2,,0.0,,0.0
1979-08-01 06:28:13.340 ,5,0,0.,1.2,0.,1.2,0.,1.2,,0.0,,0.0
1979-08-01 06:28:14.540 ,5,0,0.,1.2,0.,1.2,0.,1.2,,0.0,,0.0
1979-08-01 06:28:15.740 ,5,0,1.,1.2,0.,1.2,0.,1.2,,0.0,,0.0
1979-08-01 06:28:16.940 ,5,0,2.,1.2,0.,1.2,0.,1.2,,0.0,,0.0
1979-08-01 06:28:18.140 ,5,0,0.,1.2,0.,1.2,0.,1.2,,0.0,,0.0
1979-08-01 06:28:19.340 ,5,0,0.,1.2,0.,1.2,0.,1.2,,0.0,,0.0
1979-08-01 06:28:20.540 ,5,0,0.,1.2,0.,1.2,0.,1.2,,0.0,,0.0
1979-08-01 06:28:21.740 ,5,0,0.,1.2,0.,1.2,0.,1.2,,0.0,,0.0
1979-08-01 06:28:22.940 ,5,0,0.,1.2,0.,1.2,0.,1.2,,0.0,,0.0
1979-08-01 06:28:24.140 ,5,0,0.,1.2,0.,1.2,0.,1.2,,0.0,,0.0
1979-08-01 06:28:25.340 ,5,0,1.,1.2,1.,1.2,0.,1.2,,0.0,,0.0
1979-08-01 06:28:26.540 ,5,0,0.,1.2,0.,1.2,0.,1.2,,0.0,,0.0
1979-08-01 06:28:27.740 ,5,0,1.,1.2,0.,1.2,0.,1.2,,0.0,,0.0
1979-08-01 06:28:28.940 ,5,0,0.,1.2,0.,1.2,0.,1.2,,0.0,,0.0
1979-08-01 06:28:30.140 ,5,0,1.,1.2,0.,1.2,0.,1.2,,0.0,,0.0
1979-08-01 06:28:31.340 ,5,0,0.,1.2,0.,1.2,0.,1.2,,0.0,,0.0
1979-08-01 06:28:32.540 ,5,0,1.,1.2,0.,1.2,0.,1.2,,0.0,,0.0
1979-08-01 06:28:33.740 ,5,0,0.,1.2,0.,1.2,0.,1.2,,0.0,,0.0
1979-08-01 06:28:34.940 ,5,0,0.,1.2,0.,1.2,0.,1.2,,0.0,,0.0
1979-08-01 06:28:36.140 ,5,0,1.,1.2,0.,1.2,0.,1.2,,0.0,,0.0
1979-08-01 06:28:37.340 ,5,0,2.,1.2,0.,1.2,0.,1.2,,0.0,,0.0
1979-08-01 06:28:38.540 ,5,0,0.,1.2,0.,1.2,0.,1.2,,0.0,,0.0
1979-08-01 06:28:39.740 ,5,0,0.,1.2,0.,1.2,0.,1.2,,0.0,,0.0
1979-08-01 06:28:40.940 ,5,0,0.,1.2,0.,1.2,0.,1.2,,0.0,,0.0
1979-08-01 06:28:42.140 ,5,0,0.,1.2,0.,1.2,0.,1.2,,0.0,,0.0
1979-08-01 06:28:43.340 ,5,0,1.,1.2,1.,1.2,1.,1.2,,0.0,,0.0
1979-08-01 06:28:44.540 ,5,0,1.,1.2,0.,1.2,0.,1.2,,0.0,,0.0
1979-08-01 06:28:45.740 ,6,0,0.,1.2,0.,1.2,0.,1.2,,0.0,,0.0
1979-08-01 06:28:46.940 ,6,0,0.,1.2,0.,1.2,0.,1.2,,0.0,,0.0
1979-08-01 06:28:48.140 ,6,0,0.,1.2,0.,1.2,0.,1.2,,0.0,,0.0
1979-08-01 06:28:49.340 ,6,0,0.,1.2,0.,1.2,0.,1.2,,0.0,,0.0
1979-08-01 06:28:50.540 ,6,0,0.,1.2,0.,1.2,0.,1.2,,0.0,,0.0
1979-08-01 06:28:51.740 ,6,0,0.,1.2,0.,1.2,0.,1.2,,0.0,,0.0
1979-08-01 06:28:52.940 ,6,0,0.,1.2,0.,1.2,0.,1.2,,0.0,,0.0
1979-08-01 06:28:54.140 ,6,0,0.,1.2,0.,1.2,0.,1.2,,0.0,,0.0
1979-08-01 06:28:55.340 ,6,0,0.,1.2,0.,1.2,0.,1.2,,0.0,,0.0
1979-08-01 06:28:56.540 ,6,0,0.,1.2,0.,1.2,0.,1.2,,0.0,,0.0
1979-08-01 06:28:57.740 ,6,0,1.,1.2,0.,1.2,0.,1.2,,0.0,,0.0
1979-08-01 06:28:58.940 ,6,0,1.,1.2,0.,1.2,0.,1.2,,0.0,,0.0
1979-08-01 06:29:00.140 ,6,0,1.,1.2,0.,1.2,0.,1.2,,0.0,,0.0
1979-08-01 06:29:01.340 ,6,0,2.,1.2,1.,1.2,0.,1.2,,0.0,,0.0
1979-08-01 06:29:02.540 ,6,0,0.,1.2,0.,1.2,0.,1.2,,0.0,,0.0
1979-08-01 06:29:03.740 ,6,0,0.,1.2,0.,1.2,0.,1.2,,0.0,,0.0
1979-08-01 06:29:04.940 ,6,0,0.,1.2,0.,1.2,0.,1.2,,0.0,,0.0
1979-08-01 06:29:06.140 ,6,0,0.,1.2,0.,1.2,0.,1.2,,0.0,,0.0
1979-08-01 06:29:07.340 ,6,0,0.,1.2,0.,1.2,0.,1.2,,0.0,,0.0
1979-08-01 06:29:08.540 ,6,0,0.,1.2,0.,1.2,0.,1.2,,0.0,,0.0
1979-08-01 06:29:09.740 ,0,0,0.,1.2,0.,1.2,0.,1.2,,0.0,,0.0
1979-08-01 06:29:10.940 ,0,0,3.,1.2,0.,1.2,0.,1.2,,0.0,,0.0
1979-08-01 06:29:12.140 ,0,0,0.,1.2,0.,1.2,0.,1.2,,0.0,,0.0
1979-08-01 06:29:13.340 ,0,0,1.,1.2,0.,1.2,0.,1.2,,0.0,,0.0
1979-08-01 06:29:14.540 ,0,0,3.,1.2,0.,1.2,0.,1.2,,0.0,,0.0
1979-08-01 06:29:15.740 ,0,0,0.,1.2,0.,1.2,0.,1.2,,0.0,,0.0
1979-08-01 06:29:16.940 ,0,0,0.,1.2,0.,1.2,0.,1.2,,0.0,,0.0
1979-08-01 06:29:18.140 ,0,0,0.,1.2,0.,1.2,0.,1.2,,0.0,,0.0
1979-08-01 06:29:19.340 ,0,0,0.,1.2,0.,1.2,0.,1.2,,0.0,,0.0
1979-08-01 06:29:20.540 ,0,0,1.,1.2,0.,1.2,0.,1.2,,0.0,,0.0
1979-08-01 06:29:21.740 ,0,0,1.,1.2,0.,1.2,0.,1.2,,0.0,,0.0
1979-08-01 06:29:22.940 ,0,0,1.,1.2,1.,1.2,0.,1.2,,0.0,,0.0
1979-08-01 06:29:24.140 ,0,0,0.,1.2,0.,1.2,0.,1.2,,0.0,,0.0
1979-08-01 06:29:25.340 ,0,0,0.,1.2,0.,1.2,0.,1.2,,0.0,,0.0
1979-08-01 06:29:26.540 ,0,0,0.,1.2,0.,1.2,0.,1.2,,0.0,,0.0
1979-08-01 06:29:27.740 ,0,0,,0,,0,,0,,0,,0
1979-08-01 06:29:28.940 ,0,0,0.,1.2,0.,1.2,0.,1.2,,0.0,,0.0
1979-08-01 06:29:30.140 ,0,0,1.,1.2,1.,1.2,0.,1.2,,0.0,,0.0
1979-08-01 06:29:31.340 ,0,0,0.,1.2,0.,1.2,0.,1.2,,0.0,,0.0
1979-08-01 06:29:32.540 ,0,0,0.,1.2,0.,1.2,0.,1.2,,0.0,,0.0
1979-08-01 06:29:33.740 ,7,0,1.,1.2,0.,1.2,0.,1.2,,0.0,,0.0
1979-08-01 06:29:34.940 ,7,0,0.,1.2,0.,1.2,0.,1.2,,0.0,,0.0
1979-08-01 06:29:36.140 ,7,0,0.,1.2,0.,1.2,0.,1.2,,0.0,,0.0
1979-08-01 06:29:37.340 ,7,0,0.,1.2,0.,1.2,0.,1.2,,0.0,,0.0
1979-08-01 06:29:38.540 ,7,0,1.,1.2,0.,1.2,0.,1.2,,0.0,,0.0
1979-08-01 06:29:39.740 ,7,0,2.,1.2,1.,1.2,0.,1.2,,0.0,,0.0
1979-08-01 06:29:40.940 ,7,0,0.,1.2,0.,1.2,0.,1.2,,0.0,,0.0
1979-08-01 06:29:42.140 ,7,0,0.,1.2,0.,1.2,0.,1.2,,0.0,,0.0
1979-08-01 06:29:43.340 ,7,0,0.,1.2,0.,1.2,0.,1.2,,0.0,,0.0
1979-08-01 06:29:44.540 ,7,0,1.,1.2,1.,1.2,0.,1.2,,0.0,,0.0
1979-08-01 06:29:45.740 ,7,0,0.,1.2,0.,1.2,0.,1.2,,0.0,,0.0
1979-08-01 06:29:46.940 ,7,0,1.,1.2,0.,1.2,0.,1.2,,0.0,,0.0
1979-08-01 06:29:48.140 ,7,0,0.,1.2,0.,1.2,0.,1.2,,0.0,,0.0
1979-08-01 06:29:49.340 ,7,0,0.,1.2,0.,1.2,0.,1.2,,0.0,,0.0
1979-08-01 06:29:50.540 ,7,0,0.,1.2,0.,1.2,0.,1.2,,0.0,,0.0
1979-08-01 06:29:51.740 ,7,0,0.,1.2,0.,1.2,0.,1.2,,0.0,,0.0
1979-08-01 06:29:52.940 ,7,0,0.,1.2,0.,1.2,0.,1.2,,0.0,,0.0
1979-08-01 06:29:54.140 ,7,0,0.,1.2,0.,1.2,0.,1.2,,0.0,,0.0
1979-08-01 06:29:55.340 ,7,0,0.,1.2,0.,1.2,0.,1.2,,0.0,,0.0
1979-08-01 06:29:56.540 ,7,0,0.,1.2,0.,1.2,0.,1.2,,0.0,,0.0
1979-08-01 06:29:57.740 ,7,0,0.,1.2,0.,1.2,0.,1.2,,0.0,,0.0
1979-08-01 06:29:58.940 ,7,0,0.,1.2,0.,1.2,0.,1.2,,0.0,,0.0
1979-08-01 06:30:00.140 ,7,0,0.,1.2,0.,1.2,0.,1.2,,0.0,,0.0
1979-08-01 06:30:01.340 ,7,0,0.,1.2,0.,1.2,0.,1.2,,0.0,,0.0
1979-08-01 06:30:02.540 ,7,0,0.,1.2,0.,1.2,0.,1.2,,0.0,,0.0
1979-08-01 06:30:03.740 ,7,0,0.,1.2,0.,1.2,0.,1.2,,0.0,,0.0
1979-08-01 06:30:04.940 ,7,0,0.,1.2,0.,1.2,0.,1.2,,0.0,,0.0
1979-08-01 06:30:06.140 ,7,0,0.,1.2,0.,1.2,0.,1.2,,0.0,,0.0
1979-08-01 06:30:07.340 ,7,0,0.,1.2,0.,1.2,0.,1.2,,0.0,,0.0
1979-08-01 06:30:08.540 ,7,0,0.,1.2,0.,1.2,0.,1.2,,0.0,,0.0
1979-08-01 06:30:09.740 ,7,0,0.,1.2,0.,1.2,0.,1.2,,0.0,,0.0
1979-08-01 06:30:10.940 ,7,0,1.,1.2,0.,1.2,0.,1.2,,0.0,,0.0
1979-08-01 06:30:12.140 ,7,0,0.,1.2,0.,1.2,0.,1.2,,0.0,,0.0
1979-08-01 06:30:13.340 ,7,0,0.,1.2,0.,1.2,0.,1.2,,0.0,,0.0
1979-08-01 06:30:14.540 ,7,0,0.,1.2,0.,1.2,0.,1.2,,0.0,,0.0
1979-08-01 06:30:15.740 ,7,0,0.,1.2,0.,1.2,0.,1.2,,0.0,,0.0
1979-08-01 06:30:16.940 ,7,0,1.,1.2,1.,1.2,0.,1.2,,0.0,,0.0
1979-08-01 06:30:18.140 ,7,0,0.,1.2,0.,1.2,0.,1.2,,0.0,,0.0
1979-08-01 06:30:19.340 ,7,0,0.,1.2,0.,1.2,0.,1.2,,0.0,,0.0
1979-08-01 06:30:20.540 ,7,0,1.,1.2,0.,1.2,0.,1.2,,0.0,,0.0
1979-08-01 06:31:09.740 ,0,0,1.,1.2,0.,1.2,0.,1.2,,0.0,,0.0
1979-08-01 06:31:10.940 ,0,0,0.,1.2,0.,1.2,0.,1.2,,0.0,,0.0
1979-08-01 06:31:12.140 ,0,0,0.,1.2,0.,1.2,0.,1.2,,0.0,,0.0
1979-08-01 06:31:13.340 ,0,0,1.,1.2,0.,1.2,0.,1.2,,0.0,,0.0
1979-08-01 06:31:14.540 ,0,0,0.,1.2,0.,1.2,0.,1.2,,0.0,,0.0
1979-08-01 06:31:15.740 ,0,0,1.,1.2,0.,1.2,0.,1.2,,0.0,,0.0
1979-08-01 06:31:16.940 ,0,0,0.,1.2,0.,1.2,0.,1.2,,0.0,,0.0
1979-08-01 06:31:18.140 ,0,0,0.,1.2,0.,1.2,0.,1.2,,0.0,,0.0
1979-08-01 06:31:19.340 ,0,0,2.,1.2,0.,1.2,0.,1.2,,0.0,,0.0
1979-08-01 06:31:20.540 ,0,0,0.,1.2,0.,1.2,0.,1.2,,0.0,,0.0
1979-08-01 06:31:21.740 ,0,0,0.,1.2,0.,1.2,0.,1.2,,0.0,,0.0
1979-08-01 06:31:22.940 ,0,0,0.,1.2,0.,1.2,0.,1.2,,0.0,,0.0